Location: Bonningues
(50.7927°N, 2.0150°E)
Time: 04:51:41
(UTC+00:00)

Cosmos 1633 Rocket - Pass Details

Date: 08 August 2020
Orbit: 606 x 624 km, 82.5° (Epoch: 19 September)

Event Time Altitude Azimuth Distance (km) Brightness Sun altitude
Exits shadow 20:55:05 - 183° (S) 2,238 5.5 -12.4°
Reaches altitude 10° 20:55:41 10° 183° (S) 1,994 5.3 -12.4°
Maximum altitude 21:00:06 77° 98° (E) 648 3.0 -12.9°
Drops below altitude 10° 21:04:33 10° 13° (NNE) 2,006 6.2 -13.4°
Sets 21:06:47 0° 12° (NNE) 2,916 7.1 -13.7°
